sat.trackr.live / text

‹ back to catalog

STARLINK-31220

NORAD 59039 · 2024-038S

PAYLOAD ACTIVE UNKNOWN

§ Identity

Operator
Country
US
Launch date
2024-02-25
Launch site
AFETR
Launch vehicle
Mass (kg)
RCS (m²)

Purposes: comms

External: N2YO · Heavens-Above · Gunter

§ Orbital elements

Epoch: 2026-09-20T13:47:13.507296Z

Period
94.27 min
Inclination
43.0022°
Eccentricity
0.0001310
Mean motion
15.27576055 rev/d
Perigee alt
482.2 km
Apogee alt
484.0 km
Semi-major
6,861.2 km
B*
8.4364e-6
RAAN
6.3766°
Arg perigee
268.9921°
Mean anomaly
91.0781°
Rev number
14,456

§ Raw data

STARLINK-312201 59039U 24038S   26263.57446189 -.00000030  00000+0  84364-5 0  99992 59039  43.0022   6.3766 0001310 268.9921  91.0781 15.27576055144568

JSON: /api/v1/satellites/59039 · /tle

For live sub-satellite position, see the globe view (requires WebGL).

§ Visibility from observer

Set your observer location to see the next 7 days of passes ≥ 10°. The values pass through the URL so the page stays shareable.

No JS? Fill the form by hand. The geolocation button needs JavaScript.